CAPE
0 0 0 0 0 0 0 0 0 0 0 0 0 0 0 0 0 0 0 0 0 0 0 0 0 0 0 0 0 0 0 0 0 0 0 0 0 0 0 4 58 138 19 1130 1285
0 0 0 0 0 0 0 0 0 0 0 0 0 0 0 0 0 0 0 0 0 0 0 0 0 0 0 0 0 0 0 0 0 0 0 0 0 0 0 13 0 17 56 899 1029
0 0 0 0 0 0 0 0 0 0 0 0 0 0 0 0 0 0 0 0 0 0 0 0 0 0 0 0 0 0 0 0 0 0 0 0 0 0 0 0 0 0 0 832 653
0 0 0 0 0 0 0 0 0 0 0 0 0 0 0 0 0 0 0 0 0 0 0 0 0 0 0 0 0 0 0 0 0 0 0 0 0 0 0 0 0 0 0 46 686
0 0 0 0 0 0 0 0 0 0 0 0 0 0 0 0 0 0 0 0 0 0 0 0 0 0 0 0 0 0 0 0 0 0 0 0 0 0 0 0 0 0 0 0 253
0 0 0 0 0 0 0 0 0 0 0 0 0 0 0 0 0 0 0 0 0 0 0 0 0 0 0 0 0 0 0 0 0 0 0 0 0 0 0 0 0 0 0 0 14
0 0 0 0 0 0 0 0 0 0 0 0 0 0 0 0 0 0 0 0 0 0 0 0 0 0 0 0 0 0 0 0 0 0 0 0 0 0 0 0 83 22 98 137 557
0 0 0 0 0 0 0 0 0 0 0 0 0 0 0 0 0 0 0 0 0 0 0 0 0 0 0 0 0 0 0 0 0 0 0 0 0 0 12 0 138 215 290 396 599
0 0 0 0 0 0 0 0 0 0 0 0 0 0 0 0 0 0 0 0 0 0 0 0 0 0 0 0 0 0 0 0 0 0 0 0 0 0 2 63 193 335 448 765 857
0 0 0 0 0 0 0 0 0 0 0 0 0 0 0 0 0 0 0 0 0 0 0 0 0 0 0 0 0 0 0 0 0 0 0 0 9 0 0 10 107 235 400 363 164
0 0 0 0 0 0 0 0 0 0 0 0 0 0 0 0 0 0 0 0 0 0 0 0 0 1 0 0 0 0 0 0 1 0 0 0 8 0 0 0 0 30 68 58 22
0 0 0 0 0 0 0 0 0 0 0 0 0 0 0 0 0 0 0 0 0 0 0 0 2 0 0 0 0 0 0 0 6 0 0 25 26 0 0 0 0 0 0 0 0
0 0 0 0 0 0 0 0 0 0 0 0 0 0 0 0 0 0 0 0 0 1 0 7 0 0 0 0 0 0 0 0 0 2 0 0 91 25 0 0 0 0 0 0 0
0 0 0 0 0 0 0 0 0 0 18 0 0 0 0 2 0 0 0 0 0 5 16 21 0 0 0 0 0 0 0 0 0 0 0 0 3 149 0 0 0 0 0 0 0
0 0 0 0 0 0 0 0 0 0 93 0 0 0 0 10 0 0 0 0 8 10 0 7 0 0 0 0 0 0 0 0 0 0 0 0 0 332 84 1 0 0 0 0 0
0 0 0 0 0 0 0 0 0 0 40 0 0 0 0 0 0 0 0 0 5 2 0 4 0 0 0 0 0 0 0 0 0 0 0 0 0 41 220 89 0 0 0 0 0
0 0 0 0 0 0 0 0 53 22 22 8 0 0 0 0 0 0 1 0 0 3 0 0 0 0 0 0 0 0 0 0 0 1 0 0 0 180 127 77 35 0 0 0 0
0 0 0 0 0 0 0 0 33 83 81 0 0 0 0 0 0 0 0 2 0 0 0 4 26 0 0 0 0 0 0 0 0 0 41 46 2 148 25 31 2 0 0 0 0
0 0 0 0 0 0 0 0 11 88 26 0 0 0 1 0 0 0 0 0 0 0 0 0 0 0 0 0 0 0 0 0 0 0 0 0 195 192 30 0 0 0 0 0 0
0 0 0 0 0 0 0 0 44 31 0 0 0 6 0 2 0 0 0 0 0 0 0 0 0 0 0 0 0 0 0 0 0 0 0 0 6 82 39 0 0 0 0 0 0
0 0 0 0 0 0 0 0 7 9 0 0 0 0 0 0 0 0 0 0 0 0 0 0 0 0 0 0 0 0 0 0 0 0 0 0 16 243 192 3 47 0 0 0 0
0 0 0 0 0 0 0 0 2 0 0 0 0 0 0 0 0 0 0 0 0 0 0 0 0 0 0 0 0 0 0 0 0 0 0 0 0 30 15 0 0 0 0 0 0
0 0 0 0 0 0 13 4 7 0 0 0 0 0 0 0 0 0 0 0 0 0 0 0 0 0 0 0 0 0 0 0 0 0 0 0 30 0 0 0 0 0 0 0 0
0 1 3 0 0 0 26 12 6 19 0 0 0 0 0 0 0 0 0 0 0 0 0 0 0 0 0 12 3 0 0 0 0 0 0 0 12 3 0 0 0 0 0 0 0
0 0 0 0 2 0 0 0 0 2 0 0 0 0 0 7 14 1 0 0 0 0 0 0 0 0 0 0 0 0 0 0 0 0 0 0 0 1 0 1 6 0 0 0 0
0 0 0 0 0 0 0 0 0 1 0 0 0 0 0 10 20 32 31 19 18 5 0 0 0 0 0 0 2 4 0 0 0 0 0 0 0 0 1 2 10 2 0 0 0
0 0 0 0 0 0 0 0 0 0 0 0 1 13 5 22 23 5 18 14 26 4 22 33 27 36 23 13 34 34 8 0 0 11 9 6 18 26 14 16 1 0 0 0 0
CIN
-0 -0 -0 -0 -0 -0 -0 -0 -0 -0 -0 -0 -0 -0 -0 -0 -0 -0 -0 -0 -0 -0 -0 -0 -0 -0 -0 -0 -0 -0 -0 -0 -0 -0 -0 -0 -0 -0 -0 -41 -73 -42 -70 -34 -29
-0 -0 -0 -0 -0 -0 -0 -0 -0 -0 -0 -0 -0 -0 -0 -0 -0 -0 -0 -0 -0 -0 -0 -0 -0 -0 -0 -0 -0 -0 -0 -0 -0 -0 -0 -0 -0 -0 -0 -148 -0 -108 -11 -102 -29
-0 -0 -0 -0 -0 -0 -0 -0 -0 -0 -0 -0 -0 -0 -0 -0 -0 -0 -0 -0 -0 -0 -0 -0 -0 -0 -0 -0 -0 -0 -0 -0 -0 -0 -0 -0 -0 -0 -0 -0 -0 -0 -0 -31 -54
-0 -0 -0 -0 -0 -0 -0 -0 -0 -0 -0 -0 -0 -0 -0 -0 -0 -0 -0 -0 -0 -0 -0 -0 -0 -0 -0 -0 -0 -0 -0 -0 -0 -0 -0 -0 -0 -0 -0 -0 -0 -0 -0 -63 -74
-0 -0 -0 -0 -0 -0 -0 -0 -0 -0 -0 -0 -0 -0 -0 -0 -0 -0 -0 -0 -0 -0 -0 -0 -0 -0 -0 -0 -0 -0 -0 -0 -0 -0 -0 -0 -0 -0 -0 -0 -0 -0 -0 -0 -102
-0 -0 -0 -0 -0 -0 -0 -0 -0 -0 -0 -0 -0 -0 -0 -0 -0 -0 -0 -0 -0 -0 -0 -0 -0 -0 -0 -0 -0 -0 -0 -0 -0 -0 -0 -0 -0 -0 -0 -0 -0 -0 -0 -0 -185
-0 -0 -0 -0 -0 -0 -0 -0 -0 -0 -0 -0 -0 -0 -0 -0 -0 -0 -0 -0 -0 -0 -0 -0 -0 -0 -0 -0 -0 -0 -0 -0 -0 -0 -0 -0 -0 -0 -0 -0 -206 -181 -163 -137 -24
-0 -0 -0 -0 -0 -0 -0 -0 -0 -0 -0 -0 -0 -0 -0 -0 -0 -0 -0 -0 -0 -0 -0 -0 -0 -0 -0 -0 -0 -0 -0 -0 -0 -0 -0 -0 -0 -0 -157 -0 -150 -110 -82 -45 -83
-0 -0 -0 -0 -0 -0 -0 -0 -0 -0 -0 -0 -0 -0 -0 -0 -0 -0 -0 -0 -0 -0 -0 -0 -0 -0 -0 -0 -0 -0 -0 -0 -0 -0 -0 -0 -0 -0 -37 -134 -105 -77 -38 -2 -25
-0 -0 -0 -0 -0 -0 -0 -0 -0 -0 -0 -0 -0 -0 -0 -0 -0 -0 -0 -0 -0 -0 -0 -0 -0 -0 -0 -0 -0 -0 -0 -0 -0 -0 -0 -0 -6 -0 -0 -89 -116 -100 -72 -132 -289
-0 -0 -0 -0 -0 -0 -0 -0 -0 -0 -0 -0 -0 -0 -0 -0 -0 -0 -0 -0 -0 -0 -0 -0 -0 -8 -0 -0 -0 -0 -0 -0 -1 -0 -0 -0 -6 -0 -0 -0 -0 -172 -201 -276 -359
-0 -0 -0 -0 -0 -0 -0 -0 -0 -0 -0 -0 -0 -0 -0 -0 -0 -0 -0 -0 -0 -0 -0 -0 -3 -0 -0 -0 -0 -0 -0 -0 -3 -0 -0 -4 -4 -0 -0 -0 -0 -0 -0 -0 -0
-0 -0 -0 -0 -0 -0 -0 -0 -0 -0 -0 -0 -0 -0 -0 -0 -0 -0 -0 -0 -0 -2 -0 -8 -3 -0 -0 -0 -0 -0 -0 -0 -0 -1 -0 -0 -7 -35 -0 -0 -0 -0 -0 -0 -0
-0 -0 -0 -0 -0 -0 -0 -0 -0 -0 -10 -0 -0 -0 -0 -5 -0 -0 -0 -0 -0 -6 -4 -5 -0 -0 -0 -0 -0 -0 -0 -0 -0 -0 -0 -0 -8 -15 -0 -0 -0 -0 -0 -0 -0
-0 -0 -0 -0 -0 -0 -0 -0 -0 -0 -24 -0 -0 -0 -0 -5 -0 -0 -0 -0 -3 -4 -0 -12 -0 -0 -0 -0 -0 -0 -0 -0 -0 -0 -0 -0 -0 -6 -8 -4 -0 -0 -0 -0 -0
-0 -0 -0 -0 -0 -0 -0 -0 -0 -0 -51 -0 -0 -0 -0 -0 -0 -0 -0 -0 -3 -4 -0 -0 -0 -0 -0 -0 -0 -0 -0 -0 -0 -0 -0 -0 -0 -3 -9 -4 -0 -0 -0 -0 -0
-0 -0 -0 -0 -0 -0 -0 -0 -11 -6 -12 -5 -0 -0 -0 -0 -0 -0 -6 -0 -0 -3 -0 -0 -0 -0 -0 -0 -0 -0 -0 -0 -0 -7 -0 -0 -0 -22 -68 -63 -101 -0 -0 -0 -0
-0 -0 -0 -0 -0 -0 -0 -0 -10 -4 -9 -0 -0 -0 -0 -0 -0 -0 -0 -1 -0 -0 -0 -2 -6 -0 -0 -0 -0 -0 -0 -0 -0 -0 -5 -22 -5 -11 -91 -202 -24 -0 -0 -0 -0
-0 -0 -0 -0 -0 -0 -0 -0 -5 -6 -5 -0 -0 -0 -4 -0 -0 -0 -0 -0 -0 -0 -0 -0 -0 -0 -0 -0 -0 -0 -0 -0 -0 -0 -0 -0 -37 -78 -139 -0 -0 -0 -0 -0 -0
-0 -0 -0 -0 -0 -0 -0 -0 -4 -16 -0 -0 -0 -2 -0 -3 -0 -0 -0 -0 -0 -0 -0 -0 -0 -0 -0 -0 -0 -0 -0 -0 -0 -0 -0 -0 -4 -10 -83 -0 -0 -0 -0 -0 -0
-0 -0 -0 -0 -0 -0 -0 -0 -4 -2 -0 -0 -0 -0 -0 -0 -0 -0 -0 -0 -0 -0 -0 -0 -0 -0 -0 -0 -0 -0 -0 -0 -0 -0 -0 -0 -10 -43 -33 -18 -74 -0 -0 -0 -0
-0 -0 -0 -0 -0 -0 -0 -0 -2 -0 -0 -0 -0 -0 -0 -0 -0 -0 -0 -0 -0 -0 -0 -0 -0 -0 -0 -0 -0 -0 -0 -0 -0 -0 -0 -0 -0 -90 -111 -3 -0 -0 -0 -0 -0
-0 -0 -0 -0 -0 -1 -4 -1 -4 -0 -0 -0 -0 -0 -0 -0 -0 -0 -0 -0 -0 -0 -0 -0 -0 -0 -0 -0 -0 -0 -0 -0 -0 -0 -0 -0 -5 -0 -0 -0 -0 -0 -0 -0 -0
-0 -0 -3 -0 -0 -0 -16 -41 -7 -3 -0 -0 -0 -0 -0 -0 -0 -0 -0 -0 -0 -0 -0 -0 -0 -0 -0 -5 -2 -0 -0 -0 -0 -0 -0 -0 -7 -49 -0 -0 -0 -0 -0 -0 -0
-0 -0 -0 -0 -1 -0 -0 -0 -0 -1 -0 -0 -0 -0 -0 -2 -2 -1 -0 -0 -0 -0 -0 -0 -0 -0 -0 -0 -0 -0 -0 -0 -0 -0 -0 -0 -0 -1 -1 -9 -5 -0 -0 -0 -0
-0 -0 -0 -0 -0 -0 -0 -0 -0 -3 -0 -0 -0 -0 -4 -2 -6 -3 -7 -5 -3 -8 -0 -0 -0 -0 -0 -0 -1 -3 -0 -0 -0 -0 -0 -0 -0 -0 -6 -3 -4 -1 -0 -0 -0
-0 -0 -0 -0 -0 -0 -0 -0 -0 -0 -0 -0 -2 -3 -3 -6 -6 -5 -6 -3 -4 -2 -4 -2 -2 -2 -4 -2 -5 -4 -5 -1 -1 -6 -4 -5 -4 -6 -9 -7 -2 -0 -0 -0 -0
Wind_Speed
33 33 31 31 30 29 28 27 26 27 29 28 27 27 28 27 29 18 18 13 9 6 9 4 4 1 0 2 4 14 30 25 25 27 21 19 14 14 12 22 14 15 20 14 8
34 33 32 31 30 29 28 26 25 28 28 27 27 27 27 28 30 24 7 9 8 6 5 3 4 1 1 3 5 10 12 22 26 23 20 20 19 17 15 18 18 13 15 13 7
33 32 31 29 28 27 27 27 26 27 27 27 27 27 27 26 25 13 8 7 6 7 4 3 2 1 4 7 4 6 30 26 25 23 24 25 24 18 18 17 21 22 25 8 9
31 30 29 28 26 25 27 27 27 27 27 26 26 26 25 19 19 13 10 7 5 5 3 4 4 3 5 9 10 10 26 32 32 24 25 23 24 22 21 23 26 27 25 15 10
31 30 27 27 27 26 27 27 27 27 26 25 24 24 21 15 16 11 9 8 6 4 5 6 3 5 13 14 18 16 23 25 23 22 20 21 20 21 19 18 22 25 25 18 11
30 29 28 26 25 26 25 26 26 26 25 23 22 22 15 15 12 9 9 8 6 4 3 3 9 9 22 22 14 12 17 24 17 16 14 15 17 16 13 21 22 21 15 13 16
30 29 27 26 26 26 26 26 26 26 24 23 21 17 14 18 8 8 8 7 6 7 8 12 16 11 16 16 16 21 22 19 20 18 17 16 19 17 19 19 18 17 14 14 14
30 29 27 26 25 25 25 25 26 26 23 20 16 13 18 10 8 6 7 8 7 10 15 11 10 15 20 19 17 19 19 24 13 15 16 13 14 14 17 17 15 16 12 10 14
30 29 27 26 25 24 24 24 25 21 14 10 10 9 12 9 7 7 8 7 7 8 10 12 11 11 10 16 15 13 21 15 12 17 13 11 12 16 16 15 15 14 13 11 12
29 28 26 25 24 22 22 21 17 12 10 8 16 12 7 6 7 9 9 8 7 7 8 9 10 8 7 9 22 11 15 16 20 12 12 11 10 15 16 14 14 15 13 16 19
28 26 25 24 23 21 20 14 14 12 5 5 6 11 9 9 9 8 10 6 8 6 7 6 11 13 14 18 19 16 20 21 15 16 20 17 14 15 14 13 13 13 15 16 17
26 26 24 23 22 18 16 13 17 18 16 4 11 11 9 7 7 7 10 5 6 10 7 11 13 13 17 19 21 21 23 24 17 18 19 12 12 12 12 13 13 13 14 15 16
26 23 22 23 22 11 10 21 18 18 14 6 6 6 6 9 7 7 9 6 7 11 11 16 11 13 18 18 22 24 25 29 25 16 19 23 14 11 9 10 12 13 13 15 17
26 23 20 19 12 10 16 9 19 17 12 7 6 8 6 6 6 9 10 13 12 14 9 17 12 17 19 20 20 26 25 23 23 25 26 11 25 9 6 10 11 12 14 15 17
28 24 20 11 21 18 16 20 19 18 14 14 7 8 5 7 7 5 5 8 20 12 14 15 11 15 20 21 25 26 25 25 23 24 24 19 21 10 5 9 12 13 15 16 16
29 26 24 6 7 19 20 21 21 4 12 6 7 5 6 4 7 9 4 9 20 18 14 23 15 20 22 23 20 23 23 20 17 20 23 18 20 13 9 5 8 13 16 17 18
30 27 6 20 10 14 19 21 4 11 10 6 4 4 4 5 5 5 3 3 8 11 10 9 12 13 18 20 12 16 20 24 18 14 21 13 9 13 8 10 11 13 16 18 20
32 21 5 3 14 17 16 4 2 6 2 10 9 7 5 6 7 9 10 11 11 20 27 19 14 9 12 17 21 21 21 24 30 25 17 11 19 15 8 10 12 14 17 19 21
31 14 7 8 2 13 11 5 4 18 16 10 8 11 9 11 17 11 12 16 19 12 18 23 18 11 15 17 17 15 17 20 25 28 29 32 17 11 9 11 13 15 18 20 21
23 12 9 11 7 9 11 12 23 17 16 12 11 14 16 11 11 12 17 15 16 16 16 18 20 12 13 15 13 16 24 20 15 26 29 26 24 19 10 10 12 16 18 18 19
18 13 14 9 8 11 12 15 18 14 18 19 20 23 17 22 16 19 15 12 11 10 13 17 15 14 14 15 14 12 15 16 24 26 31 32 25 14 9 11 13 17 17 17 17
18 15 14 9 11 12 15 18 23 21 15 22 22 26 21 18 18 18 18 16 9 11 13 13 18 19 17 13 17 22 24 24 23 25 21 27 30 16 13 13 14 16 15 16 18
22 19 14 11 13 15 17 22 19 22 20 19 20 19 18 19 20 19 18 16 11 13 16 13 17 21 17 16 18 21 15 18 22 25 28 32 27 12 14 17 16 16 16 16 18
22 19 16 14 19 25 28 21 23 16 23 22 20 16 15 17 17 20 17 14 15 13 14 17 20 22 28 30 24 21 18 21 21 25 27 25 23 15 17 18 16 15 16 18 18
22 20 20 20 21 24 26 28 30 26 17 18 19 17 17 20 18 17 19 14 14 12 14 15 23 24 29 31 31 29 26 24 21 23 28 30 32 27 22 19 18 17 17 18 18
25 23 26 25 21 23 22 22 25 25 21 19 19 21 16 18 18 24 17 15 15 10 13 14 24 28 33 31 31 30 27 24 27 27 27 28 29 24 24 22 21 19 19 19 19
28 22 17 25 17 19 19 19 21 21 24 23 27 24 22 27 19 20 19 17 16 17 14 15 20 24 32 30 29 31 22 27 26 25 24 25 25 25 20 16 17 18 17 18 19
Wind_Direction
314 312 312 309 306 309 314 318 320 314 300 305 314 318 316 318 311 329 324 341 355 22 352 56 125 337 189 203 205 278 260 275 277 278 287 297 300 305 310 285 314 304 297 325 7
313 310 309 306 305 307 310 318 320 304 298 311 312 315 316 316 301 308 344 352 1 69 31 100 138 138 261 258 265 276 276 274 273 288 292 296 298 300 301 302 299 315 311 324 349
314 311 310 310 311 309 308 309 310 307 303 305 307 310 313 316 310 340 20 18 24 102 47 81 83 262 280 294 234 272 264 266 281 285 285 288 289 299 295 306 287 294 288 332 317
321 317 315 313 314 313 304 302 301 301 303 308 312 315 318 325 322 354 11 20 52 89 48 326 305 273 288 285 289 279 275 265 266 288 286 286 287 290 295 292 287 286 295 310 321
322 317 321 315 310 310 303 297 297 299 303 310 316 321 328 321 324 1 21 26 68 26 326 311 293 287 291 292 286 284 281 281 287 289 293 289 291 292 296 312 306 300 290 299 304
327 324 319 320 318 307 306 300 297 298 305 314 319 318 332 320 355 23 40 46 49 62 5 319 303 296 288 286 287 315 295 286 297 299 305 301 299 299 316 311 307 308 306 312 297
324 323 319 314 305 287 285 282 287 291 298 303 309 321 320 316 10 37 53 36 18 335 321 295 289 301 305 298 298 289 292 294 290 294 297 304 293 294 305 314 316 314 320 309 318
329 325 319 314 307 301 304 294 279 275 292 303 312 329 311 358 2 52 68 7 4 332 302 318 313 290 293 301 301 293 294 288 290 304 298 304 299 308 310 312 322 318 326 328 315
323 319 315 309 309 310 305 295 287 299 326 347 353 344 328 4 19 91 93 40 22 349 332 322 317 308 322 300 302 308 288 296 307 305 310 293 293 310 313 315 314 319 323 333 325
316 313 305 304 309 313 303 307 324 354 349 8 299 333 340 34 44 101 101 0 31 4 348 326 320 323 320 308 295 295 302 300 296 318 318 298 303 319 317 316 315 314 318 316 313
307 302 299 301 310 310 303 354 345 345 23 61 15 310 43 22 55 86 102 65 1 24 331 357 310 307 312 308 311 311 305 303 309 322 305 305 310 319 323 326 324 322 320 323 325
296 294 292 285 301 328 320 331 324 304 302 97 310 312 337 50 63 80 102 36 346 316 357 325 300 324 311 306 300 301 299 298 310 313 310 313 306 321 323 325 328 327 328 329 329
293 279 275 280 295 14 132 244 291 289 310 24 48 56 53 91 77 89 111 87 342 312 314 306 334 332 316 314 305 299 298 291 302 315 312 302 294 303 323 333 336 336 338 337 334
293 273 256 254 358 71 181 308 238 269 321 68 81 353 53 56 343 325 119 208 320 309 315 306 329 317 316 314 317 307 309 308 304 303 300 281 297 250 293 323 335 335 333 332 333
294 274 240 158 257 202 304 246 259 233 340 105 57 356 1 109 33 1 356 332 286 319 312 319 321 317 312 313 314 305 313 309 308 303 300 291 296 288 279 304 319 336 335 333 337
297 279 268 69 110 195 243 237 237 48 331 20 30 76 86 23 354 360 32 312 296 305 314 304 321 312 310 314 321 316 316 317 316 307 297 297 287 288 267 268 337 341 334 331 332
295 282 14 292 360 321 273 260 15 170 343 3 43 68 121 0 349 351 8 331 314 319 307 311 318 325 322 319 327 324 320 311 305 304 303 322 295 314 330 325 334 336 336 334 331
298 328 14 7 311 302 298 348 280 181 171 344 340 339 326 330 317 323 311 307 312 301 296 306 317 313 340 323 314 314 317 309 304 304 325 326 302 308 327 334 329 332 333 333 331
301 354 356 343 354 308 312 286 220 295 299 322 326 314 309 311 305 318 301 299 312 317 304 303 306 324 326 324 323 326 316 319 307 301 296 295 321 318 308 314 323 326 326 328 330
338 351 357 332 325 314 300 288 287 300 312 312 301 314 306 311 312 304 304 309 302 311 316 314 301 315 327 327 319 312 316 314 310 306 297 300 303 311 297 310 320 323 326 331 333
360 348 340 340 318 297 286 293 295 307 300 297 296 295 303 298 305 301 306 325 320 322 320 317 313 315 322 314 313 318 317 309 309 304 301 301 308 342 319 315 318 323 326 330 332
1 348 351 340 302 290 286 291 293 295 307 294 295 292 298 302 301 301 300 308 328 319 316 318 313 302 311 319 315 309 303 306 301 306 305 302 298 328 322 322 322 320 321 324 326
352 342 5 338 304 294 291 288 296 293 297 299 297 296 299 300 300 301 303 315 317 309 311 317 311 305 301 306 313 307 305 304 304 304 299 299 310 330 329 323 321 316 315 317 318
3 351 356 338 311 297 292 295 295 299 294 295 296 300 300 300 302 304 304 308 308 306 315 313 304 299 297 296 317 308 303 304 301 298 302 300 306 305 316 317 317 311 308 309 311
5 356 348 323 312 310 295 290 288 291 299 299 294 293 296 296 301 302 305 306 311 308 308 303 299 300 298 297 297 300 300 300 294 294 294 300 300 306 315 319 323 313 310 307 311
356 351 329 323 326 312 308 300 294 290 300 299 296 295 298 294 299 302 306 304 303 304 305 301 302 301 296 298 298 297 298 297 295 296 295 297 298 304 306 309 315 312 307 306 310
349 354 356 322 342 330 323 313 305 308 296 296 290 298 297 296 304 302 305 310 309 309 303 304 302 304 299 302 300 297 302 297 296 293 295 294 302 307 312 309 313 309 306 307 312